Back to catalog

METEOR 2-6 DEB

AlivePO
NORAD 31406·DEBRIS·🇷🇺 Russia

Launched Sep 9, 1980 from Plesetsk Cosmodrome

Loading…

Next Passes (next 24 hours)

TLE

FreshSource: Space-Track

Epoch: Sep 13, 2026, 21:30 UTC

1 31406U 80073H   26256.89593801  .00003822  00000-0  98033-3 0  9997
2 31406  81.2155 226.9325 0030074 244.0525 115.7568 14.49897484120580

Track METEOR 2-6 DEB in real time with AllMySat

Download on the App Store